time, beta470, beta532, beta650
yyyy/mm/dd HH:MM:SS.fff, counts, counts, counts
2023/07/10 17:00:12.412, 110, 202, 112
2023/07/10 17:00:13.531, 110, 202, 108
2023/07/10 17:00:14.667, 106, 201, 116
2023/07/10 17:00:15.803, 112, 202, 111
2023/07/10 17:00:16.923, 119, 213, 117
2023/07/10 17:00:18.059, 116, 221, 116
2023/07/10 17:00:19.195, 119, 219, 115
2023/07/10 17:00:20.315, 122, 225, 117
2023/07/10 17:00:21.451, 128, 225, 114
2023/07/10 17:00:22.587, 127, 237, 120
2023/07/10 17:00:23.707, 125, 236, 122
2023/07/10 17:00:24.843, 126, 231, 118
2023/07/10 17:00:25.979, 125, 231, 114
2023/07/10 17:00:27.098, 127, 235, 119
2023/07/10 17:00:28.234, 130, 230, 118
2023/07/10 17:00:29.355, 126, 231, 120
2023/07/10 17:00:30.491, 128, 237, 113
2023/07/10 17:00:31.627, 127, 235, 119
2023/07/10 17:00:32.746, 127, 228, 110
2023/07/10 17:00:33.882, 127, 229, 116
2023/07/10 17:00:35.018, 124, 233, 119
2023/07/10 17:00:36.138, 125, 228, 112
2023/07/10 17:00:37.273, 122, 231, 125
2023/07/10 17:00:38.410, 122, 227, 131
2023/07/10 17:00:39.530, 122, 225, 112
2023/07/10 17:00:40.666, 125, 222, 112
2023/07/10 17:00:41.802, 122, 224, 111
2023/07/10 17:00:42.922, 121, 220, 111
2023/07/10 17:00:44.058, 126, 220, 116
2023/07/10 17:00:45.194, 121, 223, 119
2023/07/10 17:00:46.314, 119, 226, 115
2023/07/10 17:00:47.449, 122, 220, 121
2023/07/10 17:00:48.585, 120, 218, 115
2023/07/10 17:00:49.705, 116, 223, 118
2023/07/10 17:00:50.841, 118, 217, 112
2023/07/10 17:00:51.961, 119, 214, 127
2023/07/10 17:00:53.097, 118, 213, 117
2023/07/10 17:00:54.233, 116, 213, 108
2023/07/10 17:00:55.353, 115, 213, 114
2023/07/10 17:00:56.489, 117, 211, 112
2023/07/10 17:00:57.625, 115, 218, 114
2023/07/10 17:00:58.745, 115, 210, 112
2023/07/10 17:00:59.881, 114, 207, 111
2023/07/10 17:01:01.016, 112, 208, 106
2023/07/10 17:01:02.137, 111, 207, 109
2023/07/10 17:01:03.273, 118, 225, 109
2023/07/10 17:01:04.409, 113, 208, 106
2023/07/10 17:01:05.528, 110, 205, 108
2023/07/10 17:01:06.664, 114, 207, 112
2023/07/10 17:01:07.800, 111, 204, 107
2023/07/10 17:01:08.920, 110, 207, 100
2023/07/10 17:01:10.056, 113, 206, 101
2023/07/10 17:01:11.192, 114, 207, 105
2023/07/10 17:01:12.312, 112, 203, 107
2023/07/10 17:01:13.448, 111, 211, 110
2023/07/10 17:01:14.584, 116, 207, 105
2023/07/10 17:01:15.704, 111, 204, 106
2023/07/10 17:01:16.839, 111, 200, 106
2023/07/10 17:01:17.976, 109, 203, 103
2023/07/10 17:01:19.096, 109, 202, 105
2023/07/10 17:01:20.232, 113, 201, 105
2023/07/10 17:01:21.367, 109, 200, 106
2023/07/10 17:01:22.487, 109, 198, 106
2023/07/10 17:01:23.623, 107, 207, 103
2023/07/10 17:01:24.759, 110, 200, 106
2023/07/10 17:01:25.879, 115, 198, 109
2023/07/10 17:01:27.015, 105, 202, 103
2023/07/10 17:01:28.151, 104, 194, 103
2023/07/10 17:01:29.271, 109, 197, 104
2023/07/10 17:01:30.407, 108, 196, 106
2023/07/10 17:01:31.527, 105, 197, 101
2023/07/10 17:01:32.663, 104, 195, 103
2023/07/10 17:01:33.799, 106, 194, 104
2023/07/10 17:01:34.919, 110, 194, 102
2023/07/10 17:01:36.054, 106, 196, 104
2023/07/10 17:01:37.191, 109, 196, 99
2023/07/10 17:01:38.311, 104, 193, 98
2023/07/10 17:01:39.446, 105, 193, 98
2023/07/10 17:01:40.566, 104, 194, 100
2023/07/10 17:01:41.702, 106, 194, 102
2023/07/10 17:01:42.838, 107, 194, 99
2023/07/10 17:01:43.958, 104, 192, 104
2023/07/10 17:01:45.094, 103, 190, 110
2023/07/10 17:01:46.231, 105, 195, 105
2023/07/10 17:01:47.350, 104, 188, 108
2023/07/10 17:01:48.486, 103, 238, 106
2023/07/10 17:01:49.622, 101, 198, 103
2023/07/10 17:01:50.741, 102, 192, 104
2023/07/10 17:01:51.878, 102, 188, 100
2023/07/10 17:01:53.014, 103, 192, 99
2023/07/10 17:01:54.134, 103, 199, 104
2023/07/10 17:01:55.270, 102, 189, 106
2023/07/10 17:01:56.389, 105, 186, 99
2023/07/10 17:01:57.525, 102, 189, 91
2023/07/10 17:01:58.661, 105, 188, 95
2023/07/10 17:01:59.781, 102, 188, 98
2023/07/10 17:02:00.917, 98, 190, 100
2023/07/10 17:02:02.053, 100, 192, 102
2023/07/10 17:02:03.173, 99, 188, 99
2023/07/10 17:02:04.309, 101, 188, 100
2023/07/10 17:02:05.429, 100, 188, 96
2023/07/10 17:02:06.565, 102, 190, 100
2023/07/10 17:02:07.701, 100, 187, 114
2023/07/10 17:02:08.821, 107, 187, 101
2023/07/10 17:02:09.957, 100, 217, 98
2023/07/10 17:02:11.093, 100, 190, 102
2023/07/10 17:02:12.213, 100, 190, 99
2023/07/10 17:02:13.348, 100, 186, 101
2023/07/10 17:02:14.468, 98, 185, 102
2023/07/10 17:02:15.604, 100, 184, 101
2023/07/10 17:02:16.740, 98, 185, 104
2023/07/10 17:02:17.860, 103, 187, 103
2023/07/10 17:02:18.995, 102, 183, 100
2023/07/10 17:02:20.132, 99, 184, 95
2023/07/10 17:02:21.252, 100, 184, 97
2023/07/10 17:02:22.388, 101, 181, 101
2023/07/10 17:02:23.508, 98, 184, 101
2023/07/10 17:02:24.644, 96, 183, 100
2023/07/10 17:02:25.780, 97, 185, 98
2023/07/10 17:02:26.900, 101, 185, 96
2023/07/10 17:02:28.036, 98, 185, 99
2023/07/10 17:02:29.156, 99, 184, 103
2023/07/10 17:02:30.292, 97, 180, 108
2023/07/10 17:02:31.427, 99, 181, 107
2023/07/10 17:02:32.547, 99, 182, 108
2023/07/10 17:02:33.683, 100, 182, 104
2023/07/10 17:02:34.803, 100, 183, 102
2023/07/10 17:02:35.939, 97, 181, 100
2023/07/10 17:02:37.075, 97, 182, 102
2023/07/10 17:02:38.195, 96, 184, 103
2023/07/10 17:02:39.331, 99, 186, 108
2023/07/10 17:02:40.451, 97, 184, 101
2023/07/10 17:02:41.586, 97, 182, 98
2023/07/10 17:02:42.723, 100, 180, 104
2023/07/10 17:02:43.843, 99, 180, 102
2023/07/10 17:02:44.979, 97, 182, 100
2023/07/10 17:02:46.098, 98, 184, 102
2023/07/10 17:02:47.235, 99, 180, 106
2023/07/10 17:02:48.371, 98, 184, 97
2023/07/10 17:02:49.490, 97, 180, 101
2023/07/10 17:02:50.626, 97, 182, 100
2023/07/10 17:02:51.746, 98, 178, 100
2023/07/10 17:02:52.882, 102, 182, 99
2023/07/10 17:02:54.018, 98, 182, 102
2023/07/10 17:02:55.137, 98, 183, 103
2023/07/10 17:02:56.274, 98, 179, 105
2023/07/10 17:02:57.394, 96, 181, 100
2023/07/10 17:02:58.530, 99, 181, 99
2023/07/10 17:02:59.666, 100, 180, 103
2023/07/10 17:03:00.786, 99, 180, 103
2023/07/10 17:03:01.922, 97, 180, 103
2023/07/10 17:03:03.042, 97, 182, 94
2023/07/10 17:03:04.177, 94, 184, 105
2023/07/10 17:03:05.313, 98, 183, 106
2023/07/10 17:03:06.433, 95, 180, 100
2023/07/10 17:03:07.569, 98, 182, 100
2023/07/10 17:03:08.689, 99, 184, 103
2023/07/10 17:03:09.825, 97, 182, 97
2023/07/10 17:03:10.961, 95, 182, 104
2023/07/10 17:03:12.081, 96, 183, 108
2023/07/10 17:03:13.216, 97, 182, 103
2023/07/10 17:03:14.337, 99, 179, 102
2023/07/10 17:03:15.473, 95, 177, 104
2023/07/10 17:03:16.608, 98, 179, 100
2023/07/10 17:03:17.728, 100, 180, 104
2023/07/10 17:03:18.865, 96, 180, 109
2023/07/10 17:03:20.001, 95, 177, 108
2023/07/10 17:03:21.120, 94, 178, 103
2023/07/10 17:03:22.256, 97, 180, 104
2023/07/10 17:03:23.376, 96, 180, 104
2023/07/10 17:03:24.512, 97, 179, 102
2023/07/10 17:03:25.648, 96, 181, 102
2023/07/10 17:03:26.768, 95, 178, 104
2023/07/10 17:03:27.904, 93, 177, 104
2023/07/10 17:03:29.024, 97, 179, 101
2023/07/10 17:03:30.160, 97, 176, 102
2023/07/10 17:03:31.296, 97, 178, 102
2023/07/10 17:03:32.416, 95, 179, 102
2023/07/10 17:03:33.552, 97, 178, 101
2023/07/10 17:03:34.672, 96, 177, 100
2023/07/10 17:03:35.808, 96, 180, 101
2023/07/10 17:03:36.928, 96, 178, 101
2023/07/10 17:03:38.063, 95, 178, 103
2023/07/10 17:03:39.199, 97, 177, 106
2023/07/10 17:03:40.320, 102, 178, 99
2023/07/10 17:03:41.455, 100, 179, 99
2023/07/10 17:03:42.591, 100, 178, 105
2023/07/10 17:03:43.711, 102, 177, 103
2023/07/10 17:03:44.847, 102, 178, 102
2023/07/10 17:03:45.967, 101, 184, 100
2023/07/10 17:03:47.103, 99, 180, 101
2023/07/10 17:03:48.239, 96, 181, 105
2023/07/10 17:03:49.359, 97, 183, 106
2023/07/10 17:03:50.495, 97, 178, 100
2023/07/10 17:03:51.631, 97, 182, 104
2023/07/10 17:03:52.751, 97, 175, 104
2023/07/10 17:03:53.887, 96, 179, 98
2023/07/10 17:03:55.006, 103, 179, 96
2023/07/10 17:03:56.142, 98, 177, 103
2023/07/10 17:03:57.278, 101, 178, 97
2023/07/10 17:03:58.398, 104, 178, 85
2023/07/10 17:03:59.533, 102, 178, 93
2023/07/10 17:04:00.654, 108, 175, 91
2023/07/10 17:04:01.790, 107, 178, 90
2023/07/10 17:04:02.926, 105, 178, 96
2023/07/10 17:04:04.046, 105, 180, 91
2023/07/10 17:04:05.182, 104, 176, 95
2023/07/10 17:04:06.302, 106, 178, 95
2023/07/10 17:04:07.438, 108, 177, 96
2023/07/10 17:04:08.574, 104, 176, 101
2023/07/10 17:04:09.694, 105, 178, 96
2023/07/10 17:04:10.830, 106, 176, 96
2023/07/10 17:04:11.949, 107, 176, 98
2023/07/10 17:04:13.086, 107, 178, 96
2023/07/10 17:04:14.221, 108, 178, 99
2023/07/10 17:04:15.341, 107, 179, 97
2023/07/10 17:04:16.477, 105, 179, 93
2023/07/10 17:04:17.597, 106, 177, 98
2023/07/10 17:04:18.733, 104, 182, 98
2023/07/10 17:04:19.869, 105, 178, 95
2023/07/10 17:04:20.989, 104, 179, 97
2023/07/10 17:04:22.124, 104, 178, 90
2023/07/10 17:04:23.261, 105, 178, 97
2023/07/10 17:04:24.380, 105, 179, 96
2023/07/10 17:04:25.517, 109, 177, 97
2023/07/10 17:04:26.637, 107, 180, 97
2023/07/10 17:04:27.772, 107, 176, 96
2023/07/10 17:04:28.909, 106, 175, 96
2023/07/10 17:04:30.029, 105, 178, 94
2023/07/10 17:04:31.164, 107, 177, 99
2023/07/10 17:04:32.284, 103, 176, 92
2023/07/10 17:04:33.420, 105, 176, 97
2023/07/10 17:04:34.556, 103, 181, 100
2023/07/10 17:04:35.676, 108, 180, 93
2023/07/10 17:04:36.812, 104, 178, 95
2023/07/10 17:04:37.932, 104, 176, 91
2023/07/10 17:04:39.068, 104, 179, 88
2023/07/10 17:04:40.204, 104, 178, 96
2023/07/10 17:04:41.324, 106, 178, 94
2023/07/10 17:04:42.459, 104, 177, 97
2023/07/10 17:04:43.580, 100, 177, 95
2023/07/10 17:04:44.716, 104, 186, 97
2023/07/10 17:04:45.852, 106, 177, 92
2023/07/10 17:04:46.971, 104, 178, 93
2023/07/10 17:04:48.107, 101, 180, 92
2023/07/10 17:04:49.227, 103, 180, 94
2023/07/10 17:04:50.363, 105, 181, 95
2023/07/10 17:04:51.499, 102, 178, 98
2023/07/10 17:04:52.619, 104, 180, 93
2023/07/10 17:04:53.755, 101, 177, 97
2023/07/10 17:04:54.875, 104, 179, 95
2023/07/10 17:04:56.011, 102, 181, 93
2023/07/10 17:04:57.147, 103, 178, 91
2023/07/10 17:04:58.267, 98, 178, 94
2023/07/10 17:04:59.403, 95, 180, 93
2023/07/10 17:05:00.523, 95, 178, 97
2023/07/10 17:05:01.659, 95, 178, 96
2023/07/10 17:05:02.779, 94, 180, 90
2023/07/10 17:05:03.915, 92, 177, 90
2023/07/10 17:05:05.050, 96, 181, 93
2023/07/10 17:05:06.171, 93, 179, 92
2023/07/10 17:05:07.307, 95, 180, 96
2023/07/10 17:05:08.426, 94, 176, 99
2023/07/10 17:05:09.562, 96, 175, 93
2023/07/10 17:05:10.682, 94, 174, 93
2023/07/10 17:05:11.818, 95, 179, 93
2023/07/10 17:05:12.938, 96, 177, 94
2023/07/10 17:05:14.074, 95, 177, 97
2023/07/10 17:05:15.210, 92, 178, 96
2023/07/10 17:05:16.330, 95, 179, 90
2023/07/10 17:05:17.466, 96, 177, 92
2023/07/10 17:05:18.586, 95, 177, 89
2023/07/10 17:05:19.722, 94, 177, 91
2023/07/10 17:05:20.842, 94, 178, 93
2023/07/10 17:05:21.977, 96, 178, 98
2023/07/10 17:05:23.097, 97, 175, 97
2023/07/10 17:05:24.233, 95, 174, 95
2023/07/10 17:05:25.369, 96, 177, 95
2023/07/10 17:05:26.489, 97, 177, 95
2023/07/10 17:05:27.625, 94, 177, 94
2023/07/10 17:05:28.745, 95, 177, 95
2023/07/10 17:05:29.881, 92, 176, 92
2023/07/10 17:05:31.001, 96, 177, 94
2023/07/10 17:05:32.137, 96, 177, 93
2023/07/10 17:05:33.257, 96, 176, 94
2023/07/10 17:05:34.392, 94, 176, 92
2023/07/10 17:05:35.513, 91, 177, 92
2023/07/10 17:05:36.649, 94, 178, 97
2023/07/10 17:05:37.784, 95, 175, 92
2023/07/10 17:05:38.904, 92, 177, 91
2023/07/10 17:05:40.039, 94, 176, 92
2023/07/10 17:05:41.160, 97, 175, 94
2023/07/10 17:05:42.296, 94, 178, 95
2023/07/10 17:05:43.416, 94, 176, 94
2023/07/10 17:05:44.552, 93, 176, 90
2023/07/10 17:05:45.672, 96, 174, 94
2023/07/10 17:05:46.808, 93, 175, 94
2023/07/10 17:05:47.944, 96, 176, 93
2023/07/10 17:05:49.064, 94, 175, 101
2023/07/10 17:05:50.200, 97, 177, 94
2023/07/10 17:05:51.320, 95, 178, 96
2023/07/10 17:05:52.456, 96, 177, 94
2023/07/10 17:05:53.576, 92, 179, 96
2023/07/10 17:05:54.712, 94, 178, 94
2023/07/10 17:05:55.848, 96, 177, 96
2023/07/10 17:05:56.967, 92, 178, 95
2023/07/10 17:05:58.103, 97, 175, 94
2023/07/10 17:05:59.223, 94, 177, 95
2023/07/10 17:06:00.359, 94, 177, 95
2023/07/10 17:06:01.479, 96, 177, 92
2023/07/10 17:06:02.615, 93, 175, 88
2023/07/10 17:06:03.735, 95, 176, 93
2023/07/10 17:06:04.870, 95, 175, 93
2023/07/10 17:06:06.007, 95, 177, 93
2023/07/10 17:06:07.127, 95, 179, 99
2023/07/10 17:06:08.263, 97, 176, 91
2023/07/10 17:06:09.383, 93, 197, 97
2023/07/10 17:06:10.519, 94, 177, 97
2023/07/10 17:06:11.639, 95, 178, 91
2023/07/10 17:06:12.774, 93, 179, 95
2023/07/10 17:06:13.895, 94, 178, 92
2023/07/10 17:06:15.031, 99, 177, 95
2023/07/10 17:06:16.166, 95, 182, 94
2023/07/10 17:06:17.286, 95, 182, 93
2023/07/10 17:06:18.422, 93, 179, 98
2023/07/10 17:06:19.542, 94, 177, 94
2023/07/10 17:06:20.678, 93, 175, 85
2023/07/10 17:06:21.798, 97, 183, 90
2023/07/10 17:06:22.934, 96, 175, 99
2023/07/10 17:06:24.054, 95, 178, 93
2023/07/10 17:06:25.190, 95, 175, 95
2023/07/10 17:06:26.326, 96, 176, 98
2023/07/10 17:06:27.446, 93, 175, 95
2023/07/10 17:06:28.582, 95, 176, 86
2023/07/10 17:06:29.702, 94, 176, 95
2023/07/10 17:06:30.837, 93, 177, 98
2023/07/10 17:06:31.957, 96, 174, 95
2023/07/10 17:06:33.093, 97, 178, 95
2023/07/10 17:06:34.213, 95, 177, 90
2023/07/10 17:06:35.349, 98, 176, 96
2023/07/10 17:06:36.485, 91, 176, 95
2023/07/10 17:06:37.605, 97, 174, 90
2023/07/10 17:06:38.741, 95, 175, 95
2023/07/10 17:06:39.860, 92, 173, 98
2023/07/10 17:06:40.997, 92, 175, 97
2023/07/10 17:06:42.116, 95, 177, 95
2023/07/10 17:06:43.252, 93, 175, 97
2023/07/10 17:06:44.373, 92, 177, 89
2023/07/10 17:06:45.509, 90, 172, 98
2023/07/10 17:06:46.644, 95, 176, 96
2023/07/10 17:06:47.764, 96, 176, 94
2023/07/10 17:06:48.900, 92, 178, 95
2023/07/10 17:06:50.020, 95, 174, 94
2023/07/10 17:06:51.156, 94, 176, 97
2023/07/10 17:06:52.276, 96, 177, 93
2023/07/10 17:06:53.412, 95, 176, 94
2023/07/10 17:06:54.531, 95, 178, 94
2023/07/10 17:06:55.668, 93, 178, 96
2023/07/10 17:06:56.804, 93, 174, 97
2023/07/10 17:06:57.924, 96, 173, 93
2023/07/10 17:06:59.060, 97, 174, 94
2023/07/10 17:07:00.180, 93, 175, 99
2023/07/10 17:07:01.315, 94, 177, 98
2023/07/10 17:07:02.435, 93, 173, 93
2023/07/10 17:07:03.571, 95, 175, 91
2023/07/10 17:07:04.691, 95, 175, 95
2023/07/10 17:07:05.827, 95, 176, 91
2023/07/10 17:07:06.963, 96, 176, 95
2023/07/10 17:07:08.083, 102, 178, 91
2023/07/10 17:07:09.219, 99, 174, 90
2023/07/10 17:07:10.339, 93, 176, 97
2023/07/10 17:07:11.475, 94, 175, 94
2023/07/10 17:07:12.595, 95, 176, 100
2023/07/10 17:07:13.731, 94, 176, 95
2023/07/10 17:07:14.867, 94, 175, 96
2023/07/10 17:07:15.987, 96, 177, 99
2023/07/10 17:07:17.123, 94, 174, 95
2023/07/10 17:07:18.243, 92, 176, 87
2023/07/10 17:07:19.379, 94, 174, 93
2023/07/10 17:07:20.499, 94, 176, 90
2023/07/10 17:07:21.635, 96, 178, 92
2023/07/10 17:07:22.754, 96, 173, 92
2023/07/10 17:07:23.890, 94, 174, 90
2023/07/10 17:07:25.026, 94, 173, 93
2023/07/10 17:07:26.146, 93, 173, 97
2023/07/10 17:07:27.281, 95, 177, 95
2023/07/10 17:07:28.402, 93, 176, 97
2023/07/10 17:07:29.538, 94, 177, 96
2023/07/10 17:07:30.658, 94, 173, 95
2023/07/10 17:07:31.794, 95, 174, 92
2023/07/10 17:07:32.914, 96, 177, 96
2023/07/10 17:07:34.049, 94, 174, 97
2023/07/10 17:07:35.186, 93, 176, 100
2023/07/10 17:07:36.306, 94, 179, 92
2023/07/10 17:07:37.441, 93, 176, 94
2023/07/10 17:07:38.561, 94, 176, 97
2023/07/10 17:07:39.697, 92, 175, 95
2023/07/10 17:07:40.817, 95, 176, 91
2023/07/10 17:07:41.953, 95, 175, 96
2023/07/10 17:07:43.073, 94, 174, 90
2023/07/10 17:07:44.209, 94, 173, 96
2023/07/10 17:07:45.345, 93, 177, 91
2023/07/10 17:07:46.465, 93, 175, 96
2023/07/10 17:07:47.601, 95, 174, 97
2023/07/10 17:07:48.721, 94, 177, 95
2023/07/10 17:07:49.857, 96, 176, 97
2023/07/10 17:07:50.977, 96, 174, 90
2023/07/10 17:07:52.112, 94, 176, 89
2023/07/10 17:07:53.233, 94, 175, 97
2023/07/10 17:07:54.369, 92, 177, 96
2023/07/10 17:07:55.504, 90, 176, 98
2023/07/10 17:07:56.625, 94, 176, 94
2023/07/10 17:07:57.760, 93, 176, 94
2023/07/10 17:07:58.880, 93, 172, 95
2023/07/10 17:08:00.016, 96, 174, 94
2023/07/10 17:08:01.136, 92, 174, 96
2023/07/10 17:08:02.271, 96, 173, 92
2023/07/10 17:08:03.392, 95, 174, 93
2023/07/10 17:08:04.528, 95, 172, 94
2023/07/10 17:08:05.664, 96, 177, 96
2023/07/10 17:08:06.783, 93, 173, 96
2023/07/10 17:08:07.920, 92, 174, 94
2023/07/10 17:08:09.040, 92, 175, 94
2023/07/10 17:08:10.176, 93, 177, 95
2023/07/10 17:08:11.296, 93, 175, 96
2023/07/10 17:08:12.431, 91, 175, 97
2023/07/10 17:08:13.567, 91, 175, 95
2023/07/10 17:08:14.687, 93, 177, 96
2023/07/10 17:08:15.823, 93, 175, 93
2023/07/10 17:08:16.943, 93, 175, 94
2023/07/10 17:08:18.079, 95, 174, 95
2023/07/10 17:08:19.199, 92, 172, 93
2023/07/10 17:08:20.335, 95, 176, 95
2023/07/10 17:08:21.455, 97, 176, 95
2023/07/10 17:08:22.591, 93, 175, 96
2023/07/10 17:08:23.727, 96, 178, 96
2023/07/10 17:08:24.847, 93, 174, 96
2023/07/10 17:08:25.983, 95, 175, 93
2023/07/10 17:08:27.103, 96, 173, 96
2023/07/10 17:08:28.239, 95, 175, 95
2023/07/10 17:08:29.358, 97, 175, 94
2023/07/10 17:08:30.494, 96, 175, 91
2023/07/10 17:08:31.615, 95, 176, 95
2023/07/10 17:08:32.750, 92, 174, 93
2023/07/10 17:08:33.871, 97, 174, 95
2023/07/10 17:08:35.006, 94, 176, 93
2023/07/10 17:08:36.142, 92, 176, 94
2023/07/10 17:08:37.261, 94, 176, 93
2023/07/10 17:08:38.398, 94, 175, 94
2023/07/10 17:08:39.518, 96, 173, 97
2023/07/10 17:08:40.654, 93, 174, 96
2023/07/10 17:08:41.774, 94, 174, 94
2023/07/10 17:08:42.910, 94, 175, 97
2023/07/10 17:08:44.030, 93, 173, 99
2023/07/10 17:08:45.166, 94, 176, 96
2023/07/10 17:08:46.301, 96, 172, 93
2023/07/10 17:08:47.421, 94, 175, 92
2023/07/10 17:08:48.558, 93, 173, 94
2023/07/10 17:08:49.677, 92, 174, 89
2023/07/10 17:08:50.813, 91, 174, 92
2023/07/10 17:08:51.933, 94, 173, 94
2023/07/10 17:08:53.069, 91, 174, 94
2023/07/10 17:08:54.189, 95, 173, 91
2023/07/10 17:08:55.325, 93, 174, 90
2023/07/10 17:08:56.461, 93, 175, 96
2023/07/10 17:08:57.581, 95, 171, 91
2023/07/10 17:08:58.717, 95, 173, 90
2023/07/10 17:08:59.837, 96, 174, 94
2023/07/10 17:09:00.973, 93, 174, 91
2023/07/10 17:09:02.093, 95, 172, 94
2023/07/10 17:09:03.228, 95, 176, 95
2023/07/10 17:09:04.348, 94, 171, 91
2023/07/10 17:09:05.484, 91, 174, 91
2023/07/10 17:09:06.620, 94, 173, 92
2023/07/10 17:09:07.740, 93, 175, 93
2023/07/10 17:09:08.876, 93, 173, 97
2023/07/10 17:09:09.996, 95, 173, 93
2023/07/10 17:09:11.132, 92, 174, 95
2023/07/10 17:09:12.252, 96, 172, 89
2023/07/10 17:09:13.388, 95, 173, 88
2023/07/10 17:09:14.508, 94, 175, 92
2023/07/10 17:09:15.643, 94, 175, 93
2023/07/10 17:09:16.779, 94, 172, 95
2023/07/10 17:09:17.900, 93, 173, 93
2023/07/10 17:09:19.035, 94, 171, 92
2023/07/10 17:09:20.155, 93, 172, 97
2023/07/10 17:09:21.292, 95, 172, 90
2023/07/10 17:09:22.411, 93, 173, 95
2023/07/10 17:09:23.547, 92, 173, 90
2023/07/10 17:09:24.683, 93, 176, 95
2023/07/10 17:09:25.803, 93, 172, 92
2023/07/10 17:09:26.939, 94, 173, 92
2023/07/10 17:09:28.059, 95, 176, 95
2023/07/10 17:09:29.195, 94, 177, 94
2023/07/10 17:09:30.314, 97, 173, 89
2023/07/10 17:09:31.451, 91, 174, 95
2023/07/10 17:09:32.571, 93, 175, 90
2023/07/10 17:09:33.707, 96, 174, 92
2023/07/10 17:09:34.827, 92, 176, 91
2023/07/10 17:09:35.963, 93, 175, 94
2023/07/10 17:09:37.099, 94, 171, 94
2023/07/10 17:09:38.219, 94, 176, 89
2023/07/10 17:09:39.354, 94, 175, 94
2023/07/10 17:09:40.475, 92, 172, 93
2023/07/10 17:09:41.610, 95, 175, 94
2023/07/10 17:09:42.730, 97, 172, 94
2023/07/10 17:09:43.866, 94, 176, 91
2023/07/10 17:09:44.986, 92, 177, 89
2023/07/10 17:09:46.122, 94, 174, 93
2023/07/10 17:09:47.257, 94, 173, 93
2023/07/10 17:09:48.378, 90, 174, 96
2023/07/10 17:09:49.514, 93, 174, 97
2023/07/10 17:09:50.634, 92, 176, 96
2023/07/10 17:09:51.770, 91, 174, 91
2023/07/10 17:09:52.890, 92, 174, 94
2023/07/10 17:09:54.025, 96, 177, 93
2023/07/10 17:09:55.146, 94, 176, 92
2023/07/10 17:09:56.281, 93, 177, 92
2023/07/10 17:09:57.417, 96, 173, 92
2023/07/10 17:09:58.537, 94, 174, 97
2023/07/10 17:09:59.673, 93, 175, 96
2023/07/10 17:10:00.793, 94, 172, 92
2023/07/10 17:10:01.929, 96, 173, 94
2023/07/10 17:10:03.049, 93, 179, 86
2023/07/10 17:10:04.185, 92, 172, 95
2023/07/10 17:10:05.305, 96, 173, 89
2023/07/10 17:10:06.441, 92, 174, 93
2023/07/10 17:10:07.577, 95, 176, 94
2023/07/10 17:10:08.697, 93, 174, 87
2023/07/10 17:10:09.833, 92, 175, 93
2023/07/10 17:10:10.953, 95, 177, 93
2023/07/10 17:10:12.089, 95, 177, 98
2023/07/10 17:10:13.208, 95, 190, 97
2023/07/10 17:10:14.344, 96, 176, 91
2023/07/10 17:10:15.464, 98, 178, 94
2023/07/10 17:10:16.600, 95, 178, 88
2023/07/10 17:10:17.736, 98, 177, 96
2023/07/10 17:10:18.857, 96, 179, 96
2023/07/10 17:10:19.992, 98, 176, 94
2023/07/10 17:10:21.112, 99, 179, 94
2023/07/10 17:10:22.248, 96, 179, 95
2023/07/10 17:10:23.368, 99, 177, 95
2023/07/10 17:10:24.504, 97, 179, 95
2023/07/10 17:10:25.624, 97, 183, 92
2023/07/10 17:10:26.759, 99, 180, 96
2023/07/10 17:10:27.895, 98, 183, 97
2023/07/10 17:10:29.016, 102, 178, 96
2023/07/10 17:10:30.151, 99, 184, 96
2023/07/10 17:10:31.270, 100, 182, 98
2023/07/10 17:10:32.407, 100, 183, 98
2023/07/10 17:10:33.527, 99, 185, 94
2023/07/10 17:10:34.663, 101, 185, 91
2023/07/10 17:10:35.799, 99, 184, 97
2023/07/10 17:10:36.918, 101, 187, 97
2023/07/10 17:10:38.055, 99, 182, 97
2023/07/10 17:10:39.175, 101, 182, 97
2023/07/10 17:10:40.311, 101, 188, 98
2023/07/10 17:10:41.430, 99, 185, 96
2023/07/10 17:10:42.567, 100, 185, 95
2023/07/10 17:10:43.703, 102, 187, 98
2023/07/10 17:10:44.823, 102, 183, 97
2023/07/10 17:10:45.958, 104, 188, 96
2023/07/10 17:10:47.094, 101, 184, 96
2023/07/10 17:10:48.214, 104, 190, 103
2023/07/10 17:10:49.350, 102, 184, 101
2023/07/10 17:10:50.470, 101, 215, 99
2023/07/10 17:10:51.606, 101, 186, 103
2023/07/10 17:10:52.742, 98, 187, 102
2023/07/10 17:10:53.862, 104, 187, 95
2023/07/10 17:10:54.998, 103, 187, 101
2023/07/10 17:10:56.134, 101, 188, 95
2023/07/10 17:10:57.254, 101, 188, 99
2023/07/10 17:10:58.390, 104, 188, 94
2023/07/10 17:10:59.510, 99, 187, 93
2023/07/10 17:11:00.646, 102, 192, 97
2023/07/10 17:11:01.782, 106, 188, 94
2023/07/10 17:11:02.901, 103, 192, 98
2023/07/10 17:11:04.037, 108, 189, 99
2023/07/10 17:11:05.158, 103, 185, 104
2023/07/10 17:11:06.293, 103, 193, 102
2023/07/10 17:11:07.429, 105, 189, 96
2023/07/10 17:11:08.548, 102, 188, 106
2023/07/10 17:11:09.685, 105, 186, 98
2023/07/10 17:11:10.821, 103, 191, 107
2023/07/10 17:11:11.941, 102, 191, 99
2023/07/10 17:11:13.077, 103, 194, 101
2023/07/10 17:11:14.197, 105, 192, 98
2023/07/10 17:11:15.333, 105, 196, 101
2023/07/10 17:11:16.469, 107, 191, 98
2023/07/10 17:11:17.589, 106, 190, 106
2023/07/10 17:11:18.725, 104, 192, 99
2023/07/10 17:11:19.861, 108, 197, 101
2023/07/10 17:11:20.981, 103, 194, 99
2023/07/10 17:11:22.116, 101, 192, 104
2023/07/10 17:11:23.252, 107, 190, 103
2023/07/10 17:11:24.372, 107, 193, 101
2023/07/10 17:11:25.508, 102, 191, 100
2023/07/10 17:11:26.644, 104, 195, 104
2023/07/10 17:11:27.764, 105, 191, 106
2023/07/10 17:11:28.900, 104, 195, 103
2023/07/10 17:11:30.020, 109, 194, 99
2023/07/10 17:11:31.156, 107, 194, 102
2023/07/10 17:11:32.292, 106, 195, 100
2023/07/10 17:11:33.412, 107, 196, 103
2023/07/10 17:11:34.548, 102, 189, 103
2023/07/10 17:11:35.683, 105, 195, 102
2023/07/10 17:11:36.804, 101, 198, 101
2023/07/10 17:11:37.939, 106, 197, 103
2023/07/10 17:11:39.075, 107, 194, 103
2023/07/10 17:11:40.195, 108, 197, 103
2023/07/10 17:11:41.331, 106, 199, 100
2023/07/10 17:11:42.467, 107, 197, 103
2023/07/10 17:11:43.587, 106, 195, 100
2023/07/10 17:11:44.723, 104, 190, 102
2023/07/10 17:11:45.843, 108, 196, 102
2023/07/10 17:11:46.979, 108, 195, 98
2023/07/10 17:11:48.115, 106, 197, 101